Disclaimer

Please do not use the information listed here in-flight or in-navigation, as they are not provided to us by the airports but are provided by volunteers, so they might be outdated.

Search


Regions


Airport information page

No radio frequency information is available.

Airport informations:
Latitude: 42° 10' 35.95" N
Longitude: 042° 28' 57.30" E
Elevation: 223 feet - 68 meters
Operating hours: Remarks
Operating agency: Civil government, landing fees and diplomatic clearance may be required
Timezone: UTC+3(+4DT) - Last Sunday in March to last Sunday in October
Fuel: N/A

Runway information:
08/26 - 8202 x 144 feet< - >2500 x 44 meters

Recent METARs:
UGKO 212100Z 07004KT CAVOK 05/M03 Q1018 NOSIG
UGKO 212200Z 07008KT CAVOK 05/M04 Q1017 NOSIG
UGKO 212230Z 08006KT 9999 BKN040 05/M03 Q1017 NOSIG

Airport on the map: